time, Switch, Flow(0), Analog(2)
yyyy/mm/dd HH:MM:SS.fff, True=FILTERED|False=TOTAL, L/min, V
2023/06/13 10:00:03.942, True, 3.979, 0.144350
2023/06/13 10:00:04.438, True, 2.359, 0.143130
2023/06/13 10:00:04.942, True, 1.327, 0.146029
2023/06/13 10:00:05.446, True, 0.997, 0.144427
2023/06/13 10:00:05.950, True, 0.662, 0.145113
2023/06/13 10:00:06.446, True, 0.674, 0.146410
2023/06/13 10:00:06.950, True, 0.332, 0.145418
2023/06/13 10:00:07.454, True, 0.663, 0.143206
2023/06/13 10:00:07.950, True, 0.337, 0.143969
2023/06/13 10:00:08.454, True, 0.664, 0.145037
2023/06/13 10:00:08.958, True, 0.662, 0.148470
2023/06/13 10:00:09.462, True, 0.332, 0.143282
2023/06/13 10:00:09.958, True, 0.673, 0.143511
2023/06/13 10:00:10.462, True, 0.332, 0.145037
2023/06/13 10:00:10.966, True, 0.663, 0.145037
2023/06/13 10:00:11.461, True, 0.337, 0.143359
2023/06/13 10:00:11.966, True, 0.663, 0.145647
2023/06/13 10:00:12.470, True, 0.332, 0.143816
2023/06/13 10:00:12.966, True, 0.673, 0.144884
2023/06/13 10:00:13.470, True, 0.332, 0.146105
2023/06/13 10:00:13.974, True, 0.664, 0.145113
2023/06/13 10:00:14.470, True, 0.674, 0.146410
2023/06/13 10:00:14.974, True, 0.331, 0.145418
2023/06/13 10:00:15.478, True, 0.663, 0.144579
2023/06/13 10:00:15.973, True, 0.337, 0.145495
2023/06/13 10:00:16.478, True, 0.664, 0.144503
2023/06/13 10:00:16.982, True, 0.331, 0.143587
2023/06/13 10:00:17.478, True, 0.675, 0.144961
2023/06/13 10:00:17.982, True, 0.331, 0.143435
2023/06/13 10:00:18.486, True, 0.663, 0.142443
2023/06/13 10:00:18.982, True, 0.337, 0.145724
2023/06/13 10:00:19.486, True, 0.663, 0.145571
2023/06/13 10:00:19.990, True, 0.332, 0.144656
2023/06/13 10:00:20.493, True, 0.663, 0.143816
2023/06/13 10:00:20.990, True, 0.337, 0.143740
2023/06/13 10:00:21.494, True, 0.663, 0.145953
2023/06/13 10:00:21.998, True, 0.332, 0.143816
2023/06/13 10:00:22.494, True, 0.674, 0.143664
2023/06/13 10:00:22.998, True, 0.332, 0.144656
2023/06/13 10:00:23.502, True, 0.663, 0.143816
2023/06/13 10:00:23.998, True, 0.337, 0.145571
2023/06/13 10:00:24.502, True, 0.663, 0.145037
2023/06/13 10:00:24.998, True, 0.337, 0.144884
2023/06/13 10:00:25.502, True, 0.663, 0.145342
2023/06/13 10:00:26.006, True, 0.332, 0.146639
2023/06/13 10:00:26.502, True, 0.336, 0.148165
2023/06/13 10:00:27.005, True, 0.663, 0.143740
2023/06/13 10:00:27.510, True, 0.663, 0.145724
2023/06/13 10:00:28.005, True, 0.337, 0.145876
2023/06/13 10:00:28.510, True, 0.332, 0.144427
2023/06/13 10:00:29.014, True, 0.663, 0.145724
2023/06/13 10:00:29.518, True, 0.332, 0.144045
2023/06/13 10:00:30.014, True, 0.674, 0.143664
2023/06/13 10:00:30.518, True, 0.332, 0.145724
2023/06/13 10:00:31.022, True, 0.663, 0.144503
2023/06/13 10:00:31.518, True, 0.337, 0.143435
2023/06/13 10:00:32.022, True, 0.663, 0.144732
2023/06/13 10:00:32.526, True, 0.332, 0.145571
2023/06/13 10:00:33.022, True, 0.674, 0.145266
2023/06/13 10:00:33.526, True, 0.332, 0.143282
2023/06/13 10:00:34.030, True, 0.663, 0.144045
2023/06/13 10:00:34.534, True, 0.332, 0.145190
2023/06/13 10:00:35.029, True, 0.674, 0.144198
2023/06/13 10:00:35.534, True, 0.332, 0.145190
2023/06/13 10:00:36.038, True, 0.664, 0.144961
2023/06/13 10:00:36.542, True, 0.331, 0.144732
2023/06/13 10:00:37.038, True, 0.674, 0.145647
2023/06/13 10:00:37.542, True, 0.332, 0.147097
2023/06/13 10:00:38.046, True, 0.332, 0.145113
2023/06/13 10:00:38.542, True, 0.673, 0.145647
2023/06/13 10:00:39.045, True, 0.331, 0.143740
2023/06/13 10:00:39.550, True, 0.663, 0.144961
2023/06/13 10:00:40.046, True, 0.337, 0.144961
2023/06/13 10:00:40.550, True, 0.663, 0.143740
2023/06/13 10:00:41.054, True, 0.332, 0.145342
2023/06/13 10:00:41.550, True, 0.337, 0.146563
2023/06/13 10:00:42.054, True, 0.663, 0.146410
2023/06/13 10:00:42.558, True, 0.332, 0.151446
2023/06/13 10:00:43.054, True, 0.674, 0.143740
2023/06/13 10:00:43.558, True, 0.332, 0.144198
2023/06/13 10:00:44.062, True, 0.663, 0.141756
2023/06/13 10:00:44.566, True, 0.332, 0.143740
2023/06/13 10:00:45.061, True, 0.674, 0.143282
2023/06/13 10:00:45.566, True, 0.332, 0.143816
2023/06/13 10:00:46.070, True, 0.664, 0.144350
2023/06/13 10:00:46.566, True, 0.337, 0.145190
2023/06/13 10:00:47.069, True, 0.664, 0.143740
2023/06/13 10:00:47.574, True, 0.331, 0.144808
2023/06/13 10:00:48.070, True, 0.337, 0.145876
2023/06/13 10:00:48.573, True, 0.663, 0.144427
2023/06/13 10:00:49.077, True, 0.331, 0.145953
2023/06/13 10:00:49.574, True, 0.674, 0.145342
2023/06/13 10:00:50.077, True, 0.332, 0.145037
2023/06/13 10:00:50.582, True, 0.663, 0.145342
2023/06/13 10:00:51.077, True, 0.337, 0.142977
2023/06/13 10:00:51.582, True, 0.663, 0.143740
2023/06/13 10:00:52.086, True, 0.332, 0.144961
2023/06/13 10:00:52.581, True, 0.674, 0.142977
2023/06/13 10:00:53.086, True, 0.331, 0.143282
2023/06/13 10:00:53.590, True, 0.664, 0.143282
2023/06/13 10:00:54.086, True, 0.337, 0.144350
2023/06/13 10:00:54.589, True, 0.662, 0.143664
2023/06/13 10:00:55.094, True, 0.332, 0.144656
2023/06/13 10:00:55.590, True, 0.337, 0.144732
2023/06/13 10:00:56.094, True, 0.662, 0.143511
2023/06/13 10:00:56.598, True, 0.332, 0.143740
2023/06/13 10:00:57.094, True, 0.675, 0.142824
2023/06/13 10:00:57.598, True, 0.332, 0.145953
2023/06/13 10:00:58.102, True, 0.331, 0.144579
2023/06/13 10:00:58.598, True, 0.674, 0.144656
2023/06/13 10:00:59.101, True, 0.332, 0.144732
2023/06/13 10:00:59.606, True, 0.663, 0.145037
2023/06/13 10:01:00.110, True, 0.332, 0.143664
2023/06/13 10:01:00.606, True, 0.674, 0.144579
2023/06/13 10:01:01.110, True, 0.331, 0.142443
2023/06/13 10:01:01.606, True, 0.674, 0.144579
2023/06/13 10:01:02.110, True, 0.332, 0.142596
2023/06/13 10:01:02.614, True, 0.662, 0.147402
2023/06/13 10:01:03.110, True, 0.337, 0.142901
2023/06/13 10:01:03.614, True, 0.664, 0.144045
2023/06/13 10:01:04.118, True, 0.331, 0.144579
2023/06/13 10:01:04.614, True, 0.337, 0.144045
2023/06/13 10:01:05.118, True, 0.663, 0.143893
2023/06/13 10:01:05.622, True, 0.332, 0.145190
2023/06/13 10:01:06.118, True, 0.674, 0.144732
2023/06/13 10:01:06.622, True, 0.332, 0.145190
2023/06/13 10:01:07.125, True, 0.332, 0.144350
2023/06/13 10:01:07.621, True, 0.674, 0.180743
2023/06/13 10:01:08.126, True, 0.332, 0.144808
2023/06/13 10:01:08.630, True, 0.664, 0.144961
2023/06/13 10:01:09.126, True, 0.337, 0.144350
2023/06/13 10:01:09.630, True, 0.663, 0.143206
2023/06/13 10:01:10.126, True, 0.337, 0.148089
2023/06/13 10:01:10.630, True, 0.663, 0.144579
2023/06/13 10:01:11.134, True, 0.332, 0.143893
2023/06/13 10:01:11.630, True, 0.337, 0.143664
2023/06/13 10:01:12.134, True, 0.663, 0.144045
2023/06/13 10:01:12.638, True, 0.331, 0.144274
2023/06/13 10:01:13.134, True, 0.674, 0.146105
2023/06/13 10:01:13.638, True, 0.332, 0.144503
2023/06/13 10:01:14.142, True, 0.663, 0.142977
2023/06/13 10:01:14.638, True, 0.337, 0.143206
2023/06/13 10:01:15.142, True, 0.332, 0.142290
2023/06/13 10:01:15.646, True, 0.663, 0.145037
2023/06/13 10:01:16.142, True, 0.337, 0.146487
2023/06/13 10:01:16.645, True, 0.663, 0.145571
2023/06/13 10:01:17.150, True, 0.332, 0.144427
2023/06/13 10:01:17.654, True, 0.663, 0.145418
2023/06/13 10:01:18.149, True, 0.337, 0.144350
2023/06/13 10:01:18.654, True, 0.332, 0.144884
2023/06/13 10:01:19.158, True, 0.663, 0.144732
2023/06/13 10:01:19.654, True, 0.337, 0.146181
2023/06/13 10:01:20.157, True, 0.663, 0.143206
2023/06/13 10:01:20.662, True, 0.332, 0.144732
2023/06/13 10:01:21.158, True, 0.337, 0.143893
2023/06/13 10:01:21.662, True, 0.663, 0.146792
2023/06/13 10:01:22.165, True, 0.332, 0.145647
2023/06/13 10:01:22.662, True, 0.337, 0.145113
2023/06/13 10:01:23.165, True, 0.663, 0.145724
2023/06/13 10:01:23.670, True, 0.332, 0.143511
2023/06/13 10:01:24.166, True, 0.674, 0.144503
2023/06/13 10:01:24.670, True, 0.332, 0.146029
2023/06/13 10:01:25.174, True, 0.663, 0.144045
2023/06/13 10:01:25.670, True, 0.337, 0.145266
2023/06/13 10:01:26.174, True, 0.332, 0.151598
2023/06/13 10:01:26.678, True, 0.662, 0.144045
2023/06/13 10:01:27.174, True, 0.337, 0.145495
2023/06/13 10:01:27.678, True, 0.662, 0.143053
2023/06/13 10:01:28.182, True, 0.332, 0.145266
2023/06/13 10:01:28.678, True, 0.674, 0.143282
2023/06/13 10:01:29.182, True, 0.332, 0.142672
2023/06/13 10:01:29.686, True, 0.332, 0.146563
2023/06/13 10:01:30.182, True, 0.674, 0.144350
2023/06/13 10:01:30.686, True, 0.332, 0.144350
2023/06/13 10:01:31.190, True, 0.663, 0.144198
2023/06/13 10:01:31.685, True, 0.337, 0.145037
2023/06/13 10:01:32.190, True, 0.331, 0.143282
2023/06/13 10:01:32.694, True, 0.663, 0.144045
2023/06/13 10:01:33.189, True, 0.337, 0.142519
2023/06/13 10:01:33.694, True, 0.663, 0.146563
2023/06/13 10:01:34.198, True, 0.332, 0.143587
2023/06/13 10:01:34.694, True, 0.674, 0.145418
2023/06/13 10:01:35.198, True, 0.332, 0.144732
2023/06/13 10:01:35.702, True, 0.663, 0.144274
2023/06/13 10:01:36.198, True, 0.337, 0.145800
2023/06/13 10:01:36.702, True, 0.332, 0.146258
2023/06/13 10:01:37.206, True, 0.663, 0.144656
2023/06/13 10:01:37.702, True, 0.337, 0.145724
2023/06/13 10:01:38.206, True, 0.664, 0.142748
2023/06/13 10:01:38.710, True, 0.331, 0.143511
2023/06/13 10:01:39.206, True, 0.337, 0.143740
2023/06/13 10:01:39.709, True, 0.663, 0.143893
2023/06/13 10:01:40.214, True, 0.332, 0.145418
2023/06/13 10:01:40.710, True, 0.336, 0.144656
2023/06/13 10:01:41.214, True, 0.663, 0.144808
2023/06/13 10:01:41.718, True, 0.332, 0.145190
2023/06/13 10:01:42.213, True, 0.674, 0.144503
2023/06/13 10:01:42.718, True, 0.332, 0.147326
2023/06/13 10:01:43.221, True, 0.663, 0.146105
2023/06/13 10:01:43.718, True, 0.337, 0.145190
2023/06/13 10:01:44.222, True, 0.663, 0.146029
2023/06/13 10:01:44.725, True, 0.332, 0.144350
2023/06/13 10:01:45.221, True, 0.337, 0.143816
2023/06/13 10:01:45.725, True, 0.663, 0.143893
2023/06/13 10:01:46.230, True, 0.332, 0.145647
2023/06/13 10:01:46.725, True, 0.674, 0.145342
2023/06/13 10:01:47.230, True, 0.332, 0.148089
2023/06/13 10:01:47.734, True, 0.332, 0.144579
2023/06/13 10:01:48.230, True, 0.674, 0.146563
2023/06/13 10:01:48.734, True, 0.331, 0.143893
2023/06/13 10:01:49.238, True, 0.663, 0.146029
2023/06/13 10:01:49.733, True, 0.337, 0.148547
2023/06/13 10:01:50.238, True, 0.332, 0.147326
2023/06/13 10:01:50.742, True, 0.663, 0.145037
2023/06/13 10:01:51.238, True, 0.337, 0.146868
2023/06/13 10:01:51.742, True, 0.663, 0.149310
2023/06/13 10:01:52.246, True, 0.332, 0.146944
2023/06/13 10:01:52.741, True, 0.337, 0.148013
2023/06/13 10:01:53.245, True, 0.663, 0.146563
2023/06/13 10:01:53.750, True, 0.332, 0.149157
2023/06/13 10:01:54.246, True, 0.673, 0.147402
2023/06/13 10:01:54.750, True, 0.332, 0.147631
2023/06/13 10:01:55.254, True, 0.663, 0.151064
2023/06/13 10:01:55.750, True, 0.337, 0.147326
2023/06/13 10:01:56.254, True, 0.332, 0.148165
2023/06/13 10:01:56.758, True, 0.663, 0.147021
2023/06/13 10:01:57.262, True, 0.332, 0.148775
2023/06/13 10:01:57.758, True, 0.674, 0.147173
2023/06/13 10:01:58.262, True, 0.332, 0.149691
2023/06/13 10:01:58.765, True, 0.332, 0.146639
2023/06/13 10:01:59.262, True, 0.674, 0.147402
2023/06/13 10:01:59.766, True, 0.332, 0.147021
2023/06/13 10:02:00.270, True, 0.664, 0.149920
2023/06/13 10:02:00.766, True, 0.337, 0.147402
2023/06/13 10:02:01.270, True, 0.332, 0.146715
2023/06/13 10:02:01.766, True, 0.674, 0.148547
2023/06/13 10:02:02.270, True, 0.332, 0.148623
2023/06/13 10:02:02.773, True, 0.332, 0.148928
2023/06/13 10:02:03.270, True, 0.673, 0.150454
2023/06/13 10:02:03.774, True, 0.332, 0.149081
2023/06/13 10:02:04.278, True, 0.332, 0.149004
2023/06/13 10:02:04.774, True, 0.674, 0.149920
2023/06/13 10:02:05.278, True, 0.332, 0.150912
2023/06/13 10:02:05.781, True, 0.663, 0.148928
2023/06/13 10:02:06.278, True, 0.337, 0.149462
2023/06/13 10:02:06.782, True, 0.332, 0.148775
2023/06/13 10:02:07.278, True, 0.674, 0.152590
2023/06/13 10:02:07.782, True, 0.332, 0.147860
2023/06/13 10:02:08.285, True, 0.663, 0.149462
2023/06/13 10:02:08.789, True, 0.332, 0.148165
2023/06/13 10:02:09.286, True, 0.337, 0.150149
2023/06/13 10:02:09.789, True, 0.664, 0.148928
2023/06/13 10:02:10.294, True, 0.331, 0.150607
2023/06/13 10:02:10.790, True, 0.337, 0.149462
2023/06/13 10:02:11.294, True, 0.663, 0.151751
2023/06/13 10:02:11.798, True, 0.332, 0.152132
2023/06/13 10:02:12.294, True, 0.674, 0.151369
2023/06/13 10:02:12.798, True, 0.332, 0.151293
2023/06/13 10:02:13.301, True, 0.332, 0.151904
2023/06/13 10:02:13.805, True, 0.663, 0.152895
2023/06/13 10:02:14.302, True, 0.337, 0.150607
2023/06/13 10:02:14.805, True, 0.663, 0.152667
2023/06/13 10:02:15.310, True, 0.332, 0.151217
2023/06/13 10:02:15.805, True, 0.337, 0.151217
2023/06/13 10:02:16.309, True, 0.663, 0.153506
2023/06/13 10:02:16.814, True, 0.332, 0.151293
2023/06/13 10:02:17.310, True, 0.337, 0.152209
2023/06/13 10:02:17.813, True, 0.663, 0.152895
2023/06/13 10:02:18.317, True, 0.332, 0.151369
2023/06/13 10:02:18.814, True, 0.674, 0.152972
2023/06/13 10:02:19.318, True, 0.332, 0.153353
2023/06/13 10:02:19.822, True, 0.332, 0.152895
2023/06/13 10:02:20.317, True, 0.674, 0.152667
2023/06/13 10:02:20.822, True, 0.332, 0.153658
2023/06/13 10:02:21.326, True, 0.332, 0.149844
2023/06/13 10:02:21.821, True, 0.673, 0.153201
2023/06/13 10:02:22.325, True, 0.332, 0.152438
2023/06/13 10:02:22.830, True, 0.332, 0.153277
2023/06/13 10:02:23.325, True, 0.674, 0.154192
2023/06/13 10:02:23.830, True, 0.332, 0.155261
2023/06/13 10:02:24.334, True, 0.663, 0.154040
2023/06/13 10:02:24.838, True, 0.331, 0.155566
2023/06/13 10:02:25.334, True, 0.337, 0.153048
2023/06/13 10:02:25.838, True, 0.664, 0.154040
2023/06/13 10:02:26.342, True, 0.332, 0.152285
2023/06/13 10:02:26.837, True, 0.674, 0.154421
2023/06/13 10:02:27.342, True, 0.332, 0.152819
2023/06/13 10:02:27.845, True, 0.332, 0.153811
2023/06/13 10:02:28.341, True, 0.674, 0.152438
2023/06/13 10:02:28.846, True, 0.331, 0.153582
2023/06/13 10:02:29.350, True, 0.663, 0.154574
2023/06/13 10:02:29.846, True, 0.337, 0.152514
2023/06/13 10:02:30.350, True, 0.331, 0.154498
2023/06/13 10:02:30.854, True, 0.663, 0.153124
2023/06/13 10:02:31.350, True, 0.337, 0.153277
2023/06/13 10:02:31.854, True, 0.663, 0.153353
2023/06/13 10:02:32.358, True, 0.332, 0.151446
2023/06/13 10:02:32.854, True, 0.337, 0.153048
2023/06/13 10:02:33.358, True, 0.663, 0.154269
2023/06/13 10:02:33.861, True, 0.332, 0.153887
2023/06/13 10:02:34.366, True, 0.332, 0.153582
2023/06/13 10:02:34.862, True, 0.337, 0.152285
2023/06/13 10:02:35.366, True, 0.663, 0.153124
2023/06/13 10:02:35.870, True, 0.332, 0.153506
2023/06/13 10:02:36.366, True, 0.337, 0.155718
2023/06/13 10:02:36.870, True, 0.663, 0.154955
2023/06/13 10:02:37.374, True, 0.332, 0.155261
2023/06/13 10:02:37.870, True, 0.675, 0.155108
2023/06/13 10:02:38.374, True, 0.331, 0.154879
2023/06/13 10:02:38.878, True, 0.663, 0.154421
2023/06/13 10:02:39.374, True, 0.337, 0.156329
2023/06/13 10:02:39.877, True, 0.332, 0.153811
2023/06/13 10:02:40.381, True, 0.663, 0.153277
2023/06/13 10:02:40.878, True, 0.337, 0.155718
2023/06/13 10:02:41.382, True, 0.332, 0.154803
2023/06/13 10:02:41.886, True, 0.663, 0.155337
2023/06/13 10:02:42.381, True, 0.337, 0.157855
2023/06/13 10:02:42.886, True, 0.332, 0.156634
2023/06/13 10:02:43.390, True, 0.332, 0.156863
2023/06/13 10:02:43.886, True, 0.674, 0.154726
2023/06/13 10:02:44.390, True, 0.332, 0.154803
2023/06/13 10:02:44.886, True, 0.337, 0.153735
2023/06/13 10:02:45.390, True, 0.663, 0.156939
2023/06/13 10:02:45.894, True, 0.332, 0.154116
2023/06/13 10:02:46.390, True, 0.674, 0.156176
2023/06/13 10:02:46.894, True, 0.332, 0.155413
2023/06/13 10:02:47.398, True, 0.332, 0.155032
2023/06/13 10:02:47.894, True, 0.673, 0.156405
2023/06/13 10:02:48.398, True, 0.332, 0.155795
2023/06/13 10:02:48.902, True, 0.332, 0.155947
2023/06/13 10:02:49.398, True, 0.674, 0.154192
2023/06/13 10:02:49.902, True, 0.332, 0.154040
2023/06/13 10:02:50.397, True, 0.337, 0.155337
2023/06/13 10:02:50.902, True, 0.663, 0.153735
2023/06/13 10:02:51.406, True, 0.331, 0.154040
2023/06/13 10:02:51.902, True, 0.674, 0.154116
2023/06/13 10:02:52.406, True, 0.332, 0.155718
2023/06/13 10:02:52.910, True, 0.663, 0.154345
2023/06/13 10:02:53.405, True, 0.338, 0.155795
2023/06/13 10:02:53.909, True, 0.331, 0.155718
2023/06/13 10:02:54.413, True, 0.663, 0.154498
2023/06/13 10:02:54.910, True, 0.337, 0.154726
2023/06/13 10:02:55.413, True, 0.332, 0.156786
2023/06/13 10:02:55.910, True, 0.674, 0.157168
2023/06/13 10:02:56.413, True, 0.332, 0.155108
2023/06/13 10:02:56.918, True, 0.331, 0.156023
2023/06/13 10:02:57.414, True, 0.673, 0.154803
2023/06/13 10:02:57.918, True, 0.332, 0.156786
2023/06/13 10:02:58.422, True, 0.663, 0.155642
2023/06/13 10:02:58.918, True, 0.337, 0.156100
2023/06/13 10:02:59.422, True, 0.332, 0.154879
2023/06/13 10:02:59.925, True, 0.663, 0.154345
2023/06/13 10:03:00.422, True, 0.337, 0.157321
2023/06/13 10:03:00.926, True, 0.332, 0.155566
2023/06/13 10:03:01.430, True, 0.663, 0.154803
2023/06/13 10:03:01.925, True, 0.337, 0.154498
2023/06/13 10:03:02.430, True, 0.332, 0.156100
2023/06/13 10:03:02.934, True, 0.663, 0.161669
2023/06/13 10:03:03.429, True, 0.337, 0.157397
2023/06/13 10:03:03.934, True, 0.331, 0.159686
2023/06/13 10:03:04.438, True, 0.663, 0.153353
2023/06/13 10:03:04.934, True, 0.337, 0.157092
2023/06/13 10:03:05.437, True, 0.332, 0.152895
2023/06/13 10:03:05.941, True, 0.332, 0.152819
2023/06/13 10:03:06.438, True, 0.675, 0.156023
2023/06/13 10:03:06.942, True, 0.331, 0.156481
2023/06/13 10:03:07.446, True, 0.332, 0.154269
2023/06/13 10:03:07.942, True, 0.674, 0.155871
2023/06/13 10:03:08.445, True, 0.332, 0.154574
2023/06/13 10:03:08.950, True, 0.663, 0.153658
2023/06/13 10:03:09.453, True, 0.332, 0.156023
2023/06/13 10:03:09.949, True, 0.337, 0.152209
2023/06/13 10:03:10.454, True, 0.664, 0.156786
2023/06/13 10:03:10.957, True, 0.331, 0.154650
2023/06/13 10:03:11.454, True, 0.674, 0.156252
2023/06/13 10:03:11.958, True, 0.332, 0.155566
2023/06/13 10:03:12.462, True, 0.332, 0.156863
2023/06/13 10:03:12.958, True, 0.674, 0.156710
2023/06/13 10:03:13.462, True, 0.332, 0.155718
2023/06/13 10:03:13.965, True, 0.332, 0.155947
2023/06/13 10:03:14.461, True, 0.337, 0.155184
2023/06/13 10:03:14.965, True, 0.664, 0.155032
2023/06/13 10:03:15.469, True, 0.331, 0.154192
2023/06/13 10:03:15.965, True, 0.337, 0.155947
2023/06/13 10:03:16.470, True, 0.664, 0.158999
2023/06/13 10:03:16.973, True, 0.331, 0.153506
2023/06/13 10:03:17.478, True, 0.332, 0.155337
2023/06/13 10:03:17.974, True, 0.674, 0.154803
2023/06/13 10:03:18.477, True, 0.331, 0.156786
2023/06/13 10:03:18.973, True, 0.337, 0.155947
2023/06/13 10:03:19.477, True, 0.664, 0.151827
2023/06/13 10:03:19.981, True, 0.331, 0.156023
2023/06/13 10:03:20.477, True, 0.674, 0.155032
2023/06/13 10:03:20.982, True, 0.332, 0.158083
2023/06/13 10:03:21.485, True, 0.331, 0.157549
2023/06/13 10:03:21.990, True, 0.332, 0.155718
2023/06/13 10:03:22.485, True, 0.674, 0.155795
2023/06/13 10:03:22.989, True, 0.331, 0.156405
2023/06/13 10:03:23.493, True, 0.664, 0.152514
2023/06/13 10:03:23.989, True, 0.337, 0.156329
2023/06/13 10:03:24.494, True, 0.331, 0.155795
2023/06/13 10:03:24.998, True, 0.663, 0.155642
2023/06/13 10:03:25.494, True, 0.337, 0.154574
2023/06/13 10:03:25.997, True, 0.332, 0.154421
2023/06/13 10:03:26.502, True, 0.663, 0.155184
2023/06/13 10:03:26.998, True, 0.337, 0.154650
2023/06/13 10:03:27.502, True, 0.331, 0.154726
2023/06/13 10:03:28.005, True, 0.332, 0.153887
2023/06/13 10:03:28.502, True, 0.674, 0.155489
2023/06/13 10:03:29.005, True, 0.332, 0.156023
2023/06/13 10:03:29.510, True, 0.332, 0.155566
2023/06/13 10:03:30.005, True, 0.673, 0.154879
2023/06/13 10:03:30.509, True, 0.332, 0.155413
2023/06/13 10:03:31.014, True, 0.664, 0.154955
2023/06/13 10:03:31.510, True, 0.336, 0.154345
2023/06/13 10:03:32.014, True, 0.663, 0.155795
2023/06/13 10:03:32.518, True, 0.332, 0.155718
2023/06/13 10:03:33.014, True, 0.337, 0.155871
2023/06/13 10:03:33.518, True, 0.663, 0.155566
2023/06/13 10:03:34.022, True, 0.332, 0.155795
2023/06/13 10:03:34.518, True, 0.337, 0.154345
2023/06/13 10:03:35.022, True, 0.332, 0.154269
2023/06/13 10:03:35.525, True, 0.664, 0.156863
2023/06/13 10:03:36.022, True, 0.336, 0.153811
2023/06/13 10:03:36.525, True, 0.332, 0.156405
2023/06/13 10:03:37.022, True, 0.674, 0.157397
2023/06/13 10:03:37.525, True, 0.332, 0.155184
2023/06/13 10:03:38.030, True, 0.663, 0.159075
2023/06/13 10:03:38.534, True, 0.331, 0.154269
2023/06/13 10:03:39.030, True, 0.337, 0.154726
2023/06/13 10:03:39.534, True, 0.663, 0.155566
2023/06/13 10:03:40.030, True, 0.337, 0.155871
2023/06/13 10:03:40.534, True, 0.332, 0.155718
2023/06/13 10:03:41.038, True, 0.663, 0.156939
2023/06/13 10:03:41.542, True, 0.332, 0.154269
2023/06/13 10:03:42.038, True, 0.337, 0.155566
2023/06/13 10:03:42.541, True, 0.663, 0.158923
2023/06/13 10:03:43.045, True, 0.332, 0.156634
2023/06/13 10:03:43.542, True, 0.337, 0.157778
2023/06/13 10:03:44.045, True, 0.664, 0.157321
2023/06/13 10:03:44.550, True, 0.332, 0.154726
2023/06/13 10:03:45.045, True, 0.336, 0.156023
2023/06/13 10:03:45.549, True, 0.663, 0.156252
2023/06/13 10:03:46.054, True, 0.332, 0.155413
2023/06/13 10:03:46.550, True, 0.337, 0.156329
2023/06/13 10:03:47.053, True, 0.663, 0.156710
2023/06/13 10:03:47.549, True, 0.337, 0.156023
2023/06/13 10:03:48.053, True, 0.664, 0.155642
2023/06/13 10:03:48.557, True, 0.331, 0.155566
2023/06/13 10:03:49.053, True, 0.337, 0.155184
2023/06/13 10:03:49.557, True, 0.663, 0.156634
2023/06/13 10:03:50.062, True, 0.332, 0.156939
2023/06/13 10:03:50.557, True, 0.337, 0.151598
2023/06/13 10:03:51.061, True, 0.663, 0.156710
2023/06/13 10:03:51.565, True, 0.332, 0.155337
2023/06/13 10:03:52.062, True, 0.337, 0.153353
2023/06/13 10:03:52.565, True, 0.663, 0.153887
2023/06/13 10:03:53.070, True, 0.332, 0.157626
2023/06/13 10:03:53.565, True, 0.337, 0.154498
2023/06/13 10:03:54.069, True, 0.664, 0.155642
2023/06/13 10:03:54.573, True, 0.331, 0.154803
2023/06/13 10:03:55.078, True, 0.332, 0.155337
2023/06/13 10:03:55.574, True, 0.673, 0.155184
2023/06/13 10:03:56.078, True, 0.331, 0.156558
2023/06/13 10:03:56.573, True, 0.337, 0.155642
2023/06/13 10:03:57.077, True, 0.664, 0.157931
2023/06/13 10:03:57.582, True, 0.332, 0.156252
2023/06/13 10:03:58.077, True, 0.337, 0.154345
2023/06/13 10:03:58.582, True, 0.663, 0.154650
2023/06/13 10:03:59.085, True, 0.332, 0.154040
2023/06/13 10:03:59.590, True, 0.332, 0.154498
2023/06/13 10:04:00.085, True, 0.673, 0.157778
2023/06/13 10:04:00.589, True, 0.332, 0.155566
2023/06/13 10:04:01.094, True, 0.332, 0.155261
2023/06/13 10:04:01.590, True, 0.674, 0.154421
2023/06/13 10:04:02.094, True, 0.331, 0.155489
2023/06/13 10:04:02.598, True, 0.332, 0.156481
2023/06/13 10:04:03.094, True, 0.673, 0.156329
2023/06/13 10:04:03.598, True, 0.332, 0.155947
2023/06/13 10:04:04.101, True, 0.331, 0.156634
2023/06/13 10:04:04.598, True, 0.674, 0.156176
2023/06/13 10:04:05.102, True, 0.331, 0.154650
2023/06/13 10:04:05.605, True, 0.332, 0.155642
2023/06/13 10:04:06.110, True, 0.663, 0.156558
2023/06/13 10:04:06.605, True, 0.337, 0.156329
2023/06/13 10:04:07.110, True, 0.332, 0.155413
2023/06/13 10:04:07.605, True, 0.337, 0.156939
2023/06/13 10:04:08.110, True, 0.663, 0.156481
2023/06/13 10:04:08.613, True, 0.332, 0.154726
2023/06/13 10:04:09.118, True, 0.331, 0.156558
2023/06/13 10:04:09.613, True, 0.674, 0.155871
2023/06/13 10:04:10.118, True, 0.332, 0.155108
2023/06/13 10:04:10.622, True, 0.332, 0.153429
2023/06/13 10:04:11.118, True, 0.673, 0.157549
2023/06/13 10:04:11.621, True, 0.332, 0.156252
2023/06/13 10:04:12.125, True, 0.331, 0.154192
2023/06/13 10:04:12.629, True, 0.332, 0.155718
2023/06/13 10:04:13.125, True, 0.674, 0.155718